www.pogodaiklimat.ru

Погода и климат >> Архив погоды >> Россия >> Курганская область >> Курган


АРХИВ ПОГОДЫ в Кургане

Время (UTC), дата Ветер
(напр.,м/с)
 
Видим.   Явления Облачность Т
(С)
Тd
(С)
f
(%)
Тe
(С)
Тes
(С)
Комфортность P
(гПа)
Po
(гПа)
Тmin
(С)
Tmax
(С)
R
(мм)
R24
(мм)
S
(см)
18 18.06 З 1 10 км {ливн. осадки} 8/0
[Ac trans]
+11.9 +6.7 70 +12 +12 холодно 1008.8 999.9
21 18.06 ЮВ 1 10 км 4/0
[Ci fib]
+7.5 +6.3 92 +7 +7 очень
холодно
1009.5 1000.5
00 19.06 Ю 1 20 км ясно +6.5 +5.4 93 +5 +6 очень
холодно
1010.3 1001.2
03 19.06 Ю 1 50 км 6/0
[Ci fib]
+14.1 +7.8 66 +15 +21 прохладно 1010.5 1001.7 +6.3
06 19.06 З 2 50 км 5/5 1000 м
[Cb cap]
+20.8 +5.1 36 +22 +29 комфорт 1010.2 1001.6
09 19.06 З 2 50 км 8/8 1000 м
[Cb cap]
+20.7 +4.8 35 +22 +25 комфорт 1010.7 1002.1
12 19.06 ЮЗ 3 50 км 5/5 1000 м
[Cu Sc]
+23.1 +4.4 30 +23 +26 комфорт 1010.5 1001.9
15 19.06 Ю 2 50 км 3/0
[Ci fib]
+21.5 +4.5 33 +22 +22 комфорт 1010.8 1002.2 +23.5
18 19.06 штиль 0 10 км 6/0
[Ac trans]
+14.3 +7.2 62 +14 +14 прохладно 1011.6 1002.8
21 19.06 штиль 0 10 км 10/0
[Ac trans Ci fib]
+11.7 +5.6 66 +11 +11 прохладно 1011.8 1002.9
00 20.06 Ю 1 50 км 8/0
[Ac trans Ci fib]
+12.0 +4.8 61 +12 +12 по сезону 1012.3 1003.4
03 20.06 Ю 1 50 км 8/0
[Ac trans Ci fib]
+16.6 +6.2 50 +18 +22 по сезону 1012.9 1004.1 +11.5
06 20.06 Ю 1 50 км 10/3 1000 м
[Cb cap Ac trans Ci fib]
+22.6 +9.0 42 +24 +30 комфорт 1012.4 1003.8
09 20.06 ЮЗ 3 50 км 10/5 1000 м
[Cb cap Ac trans Ci fib]
+27.1 +6.2 26 +26 +29 жарко 1011.1 1002.7
12 20.06 З 2 50 км {ливн. осадки} 10/6 1000 м
[Cb cap Ac trans Ci fib]
+25.4 +7.5 32 +25 +27 комфорт 1010.5 1002.0
15 20.06 штиль 0 50 км 6/1 1000 м
[Cb cap Ci fib]
+24.8 +7.4 33 +25 +25 комфорт 1009.6 1001.1 +27.8
18 20.06 Ю 1 10 км 5/5 1000 м
[Sc diur, vesp]
+17.8 +7.9 52 +19 +19 тепло 1009.6 1000.9
21 20.06 Ю 3 10 км 8/8 1000 м
[Sc diur, vesp]
+19.5 +6.4 42 +20 +20 тепло 1009.1 1000.4
00 21.06 ЮЗ 1 20 км 6/0
[Ac trans Ci]
+16.5 +7.5 55 +17 +18 тепло 1008.9 1000.2
03 21.06 СЗ 2 50 км 10/3 1000 м
[Cb cap Ac trans Ci]
+18.8 +11.4 62 +20 +22 тепло 1009.6 1000.9 +16.2
06 21.06 З 3 50 км 8/0
[Ac trans Ci fib]
+21.8 +10.7 49 +24 +32 комфорт 1010.3 1001.7
09 21.06 СЗ 5
{10}
50 км 6/4 1000 м
[Cu hum Ci fib]
+24.6 +6.1 30 +24 +29 комфорт 1010.1 1001.6
12 21.06 СЗ 4
{10}
50 км 5/3 1000 м
[Cu hum Ci fib]
+24.6 +4.4 27 +24 +27 комфорт 1010.2 1001.6
15 21.06 СЗ 2 50 км 6/3 1000 м
[Sc Ci fib]
+22.9 +5.6 33 +23 +24 комфорт 1010.4 1001.8 +25.0
18 21.06 СЗ 3 10 км 3/3 1000 м
[Sc]
+18.2 +4.8 41 +18 +18 по сезону 1012.1 1003.4
21 21.06 СЗ 3
{14}
10 км 3/3 1000 м
[Sc]
+13.5 +0.7 42 +13 +13 по сезону 1015.1 1006.2
00 22.06 СЗ 2 50 км ясно +9.4 +2.1 60 +8 +8 холодно 1017.4 1008.3
03 22.06 С 2 50 км 3/0
[Ac trans]
+13.9 +1.4 43 +14 +18 прохладно 1018.5 1009.6 +9.4
06 22.06 З 5-10
{10}
50 км 8/8 1000 м
[Cu med, cong]
+16.9 +0.5 33 +16 +18 холодно 1018.2 1009.4
09 22.06 СЗ 5
{12}
50 км 8/8 1000 м
[Cb cap]
+19.3 +1.3 30 +19 +21 холодно 1017.8 1009.0
12 22.06 СЗ 4
{12}
50 км 10/8 1000 м
[Cb cap Ci fib]
+20.4 +1.5 28 +21 +21 комфорт 1017.6 1008.9
15 22.06 С 1
{10}
50 км 8/0
[Ac trans Ci fib]
+18.4 +3.7 38 +20 +20 по сезону 1017.8 1009.0 +20.9
18 22.06 штиль 0 10 км 10/0
[Ac trans Ci fib]
+12.4 +5.3 62 +12 +12 холодно 1018.2 1009.3
21 22.06 штиль 0 10 км {ливн. осадки} 10/6 1000 м
[Cb cap Ac und]
+12.7 +6.9 68 +12 +12 прохладно 1018.0 1009.1
00 23.06 Ю 1 20 км в посл. час ливневой дождь 10/5 1000 м
[Cb cap Ac und]
+13.1 +7.1 67 +13 +13 по сезону 1016.3 1007.4
03 23.06 Ю 3 50 км 10/4 1000 м
[Cb cap Ac trans Ci fib]
+16.5 +7.1 54 +16 +18 по сезону 1014.5 1005.7 +12.1
06 23.06 ЮЗ 1 50 км в посл. час ливневой дождь 10/10 1000 м
[Cb cap]
+18.3 +10.3 60 +20 +20 прохладно 1013.6 1004.9
09 23.06 Ю 3 50 км в посл. час ливневой дождь 10/8 1000 м
[Cb cap Ac und]
+20.4 +13.4 64 +23 +24 комфорт 1011.9 1003.2
12 23.06 Ю 2 50 км {ливн. осадки} 10/5 1000 м
[Cb cap Ac und]
+20.4 +14.3 68 +24 +25 комфорт 1010.5 1001.9
15 23.06 ЮВ 1 50 км в посл. час ливневой дождь 10/4 1000 м
[Cb cap Ac und]
+20.6 +15.4 72 +25 +25 комфорт 1009.0 1000.4 +21.1 0.3
18 23.06 штиль 0 10 км в посл. час ливневой дождь 10/6 1000 м
[Cb cap Ac und]
+18.6 +17.1 91 +19 +19 тепло 1008.5 999.9
21 23.06 З 1 10 км местами туман поземный 3/0
[Ci fib]
+17.5 +16.2 92 +19 +19 тепло 1008.3 999.6
00 24.06 штиль 0 4000 м дымка 10/0
[Ac und]
+15.7 +14.7 94 +15 +16 по сезону 1009.3 1000.6
03 24.06 З 2 50 км 8/8 600 м
[Sc]
+20.4 +17.5 83 +24 +26 комфорт 1010.6 1002.0 +15.1 0.8
06 24.06 З 3 50 км 8/6 1000 м
[Cb cap Ci]
+24.5 +17.5 65 +29 +33 душно 1011.0 1002.5
09 24.06 З 4-10
{10}
50 км 8/6 1000 м
[Cu hum Ci fib]
+29.6 +11.7 33 +30 +34 жарко 1010.4 1002.1
12 24.06 З 3
{10}
50 км 10/5 1000 м
[Cu hum Ci]
+29.2 +10.4 31 +29 +32 жарко 1010.6 1002.2
15 24.06 СЗ 2 20 км 8/4 1000 м
[Cb cap Ac trans Ci fib]
+26.8 +11.0 37 +28 +28 жарко 1011.0 1002.6 +29.8
18 24.06 штиль 0 10 км 6/3 1000 м
[Sc diur, vesp Ci fib]
+20.7 +13.3 63 +23 +23 комфорт 1012.1 1003.5
21 24.06 С 1 10 км 3/0
[Ac trans]
+15.7 +13.2 85 +16 +16 по сезону 1012.4 1003.7
00 25.06 С 1 20 км 10/8 1000 м
[Cu hum Ci]
+14.7 +13.4 92 +15 +15 по сезону 1012.3 1003.5
03 25.06 СВ 1 50 км 10/10 1000 м
[Cb cap]
+19.0 +15.3 79 +21 +21 комфорт 1011.3 1002.6 +14.4
06 25.06 СВ 3 20 км в посл. час ливневой дождь {гроза} 10/4 1000 м
[Cb cap Ac trans Ci fib]
+17.8 +15.7 88 +18 +21 холодно 1011.6 1002.9
09 25.06 В 2 50 км 8/4 1000 м
[Cb cap Ac trans]
+22.6 +14.7 61 +26 +32 жарко 1009.9 1001.4
12 25.06 В 1 50 км 5/3 1000 м
[Cb cap Ac trans]
+25.4 +15.2 53 +28 +33 жарко 1008.1 999.7
15 25.06 С 2 20 км в посл. час гроза {ливн. осадки} 6/3 1000 м
[Cb cap Ac trans Ci fib]
+18.7 +17.6 93 +20 +21 по сезону 1008.4 999.8 +25.6 24

 

Местоположение метеостанции Курган (Курганская область, Россия): широта 55.45 долгота 65.40 высота над уровнем моря 72 м.

В архиве по умолчанию представлена погода в Кургане за последнюю неделю. Архивные данные за месяц целиком и за предыдущие месяцы, начиная с января 2011 года, Вы можете получить, выбрав интересующий диапазон дат из раскрывающегося списка и нажав кнопку "Ввод!".


*Определитесь, кто Вы:
робот инопланетянин человек

Внимание! Время в таблицах - всемирное. Для получения местного времени необходимо прибавить поправку, которая равна 5 ч.

Смотрите также архив погоды в соседних городах и на ближайших метеорологических станциях:

Погода в Памятном (Курганская область, Россия) (66 км)
Погода в Половинном (Курганская область, Россия) (85 км)
Погода в Куртамыше (Курганская область, Россия) (85 км)
Погода в Пресногорьковке (Костанайская область, Казахстан) (111 км)
Погода в Исетском (Тюменская область, Россия) (114 км)
Погода в Звериноголовском (Курганская область, Россия) (114 км)
Погода в Макушино (Курганская область, Россия) (122 км)
Погода в Шатрово (Курганская область, Россия) (128 км)
Погода в Шадринске (Курганская область, Россия) (129 км)
Погода в Шумихе (Курганская область, Россия) (134 км)

Пояснения к столбцам:

Ветер - указаны скорость ветра в м/с - средняя за 10 мин, порывы в срок и между сроками (в фигурных скобках) и направление, откуда дует ветер: С - северный, СВ - северо-восточный, В - восточный, ЮВ - юго-восточный, Ю - южный, ЮЗ - юго-западный, З - западный, СЗ - северо-западный.
Видимость - горизонтальная дальность видимости в метрах или километрах. При видимости от 1 до 10 км при отсутствии осадков обычно наблюдается дымка, при ухудшении видимости до 1 км и менее - туман. В сухую погоду видимость может ухудшаться дымом, пылью или мглою.
Явления - указаны атмосферные явления, наблюдавшиеся в срок или в последний час перед сроком; фигурными скобками обозначены явления, наблюдавшиеся между сроками (за 1-3 часа до срока); квадратными скобками обозначены град или гололедные отложения с указанием их диаметра в мм.
Облачность - указаны через наклонную черту общая и нижняя облачность в баллах и высота нижней границы облаков в метрах; квадратными скобками обозначены формы облаков: Ci - перистые, Cs - перисто-слоистые, Cc - перисто-кучевые, Ac - высококучевые, As - высокослоистые, Sc - слоисто-кучевые, Ns - слоисто-дождевые, Cu - кучевые, Cb - кучево-дождевые. Подробнее классификацию облаков см. в Атласе облаков (PDF).
T - Температура воздуха - температура, измеренная на высоте 2 м над землей.
Td - Температура точки росы - температура, при понижении до которой содержащийся в воздухе водяной пар достигнет насыщения.
f - Относительная влажность воздуха - влажноcть воздуха, измеренная на высоте 2 м над землей.
Te - Эффективная температура - температура, которую ощущает одетый по сезону человек в тени. Характеристика душности погоды. При расчете учитывается влияние влажности воздуха и скорости ветра на теплоощущения человека.
Tes - Эффективная температура на солнце - температура, которую ощущает человек, с поправкой на солнечный нагрев. Характеристика знойности погоды. Зависит от высоты солнца над горизонтом, облачности и скорости ветра. Ночью, в пасмурную погоду, а также при ветре 12 м/с и более поправка равна нулю.
P - Атмосферное давление - приведенное к уровню моря атмосферное давление.
Po - Атмосферное давление - измеренное на уровне метеостанции атмосферное давление.
Tmin - Минимальная температура - минимум температуры воздуха на высоте 2 м над землей.
Tmax - Максимальная температура - максимум температуры воздуха на высоте 2 м над землей.
R - Количество осадков - Количество выпавших осадков за период времени, мм. При наведении курсора мыши на число - период времени, за который выпало указанное количество осадков.
R24 - Количество осадков - Количество выпавших осадков за 24 часа, мм.
S - Снежный покров - Высота снежного покрова, см. При наведении курсора мыши на число - состояние снежного покрова и степень покрытия местности в баллах.